Regional Weather Roundup
Issued by NWS Sioux Falls, SD

Home | Current Version | Previous Version | Text Only | Print | Product List | Glossary On
Versions: 1 2 3 4 5 6 7 8 9 10 11 12 13 14 15 16 17 18 19 20 21 22 23 24 25 26 27 28 29 30 31 32 33 34 35 36 37 38 39 40 41 42 43 44 45 46 47 48 49 50
000
ASUS43 KFSD 290502
RWRFSD

WEATHER ROUNDUP FOR SE SOUTH DAKOTA/SW MINNESOTA/NW IOWA
NATIONAL WEATHER SERVICE SIOUX FALLS SD
1200 AM CDT FRI JUL 29 2016

NOTE: "FAIR" INDICATES FEW OR NO CLOUDS BELOW 12,000 FEET WITH NO
SIGNIFICANT WEATHER AND OR OBSTRUCTIONS TO VISIBILITY.


SDZ038>040-050-052>070-290600-
SOUTHEAST SOUTH DAKOTA

CITY           SKY/WX    TMP DP  RH WIND       PRES   REMARKS
BROOKINGS      CLOUDY    64  54  69 E3        30.10R
CHAMBERLAIN    CLOUDY    67  65  95 SW3       30.10R
HURON          PTCLDY    68  57  68 SE6       30.08S
MADISON        FAIR      57  57 100 NE5       30.11R
MITCHELL       CLOUDY    68  60  75 E5        30.09R
SIOUX FALLS    PTCLDY    61  56  83 N3        30.09R
WINNER         FAIR      64  61  90 CALM      30.11S
YANKTON        CLOUDY    66  57  72 NE5       30.07S
$$

MNZ071-072-080-081-089-090-097-098-290600-
SOUTHWEST MINNESOTA

CITY           SKY/WX    TMP DP  RH WIND       PRES   REMARKS
FAIRMONT       CLOUDY    64  61  88 CALM      30.06R
JACKSON        MOCLDY    64  61  88 VRB3      30.08S
LUVERNE        CLOUDY    61  54  77 NE3       30.09R
MARSHALL       CLEAR     58  56  93 CALM      30.08S
MONTEVIDEO     PTCLDY    63  55  77 CALM      30.10R
REDWOOD FALLS  CLEAR     64  57  78 N5        30.07S
TRACY          CLEAR     61  58  90 CALM      30.09R
WINDOM         PTCLDY    61  55  82 CALM      30.08R
WORTHINGTON    PTCLDY    64  60  87 N7        30.09R
$$

IAZ001>003-012>014-020>022-031-032-NEZ013-014-SDZ071-290600-
NORTHWEST IOWA

CITY           SKY/WX    TMP DP  RH WIND       PRES   REMARKS
CHEROKEE       MOCLDY    66  64  94 NE3       30.06R
DENISON        CLOUDY    64  64 100 CALM      30.04R
ESTHERVILLE    CLOUDY    65  64  97 N5        30.06S
LE MARS        MOCLDY    66  63  88 NE7       30.07S
SHELDON        PTCLDY    61  59  94 N3        30.07R
SIOUX CITY     PTCLDY    71  62  73 CALM      30.06R
SPENCER        CLOUDY    65  62  90 CALM      30.07R
STORM LAKE     PTCLDY    66  64  94 NE6       30.07R
$$

ABBREVIATIONS USED IN REMARKS
   TC - TEMPERATURE IN CELSIUS
  WCI - WIND CHILL INDEX
   HX - HEAT INDEX
  VSB - VISIBILITY




USA.gov is the U.S. government's official web portal to all federal, state and local government web resources and services.